Location: Austin, TX
(30.3000°N, 97.7500°W)
Time: 02:55:34
(UTC-05:00)

Daily predictions for brighter satellites

Satellite Brightness Start Highest point End
(mag) Time Altitude Azimuth Time Altitude Azimuth Time Altitude Azimuth
CZ-4C R/B 4.3 00:46:23 10° NNW 00:49:47 31° NNW 00:49:47 31° NNW
ATLAS 2AS CENTAUR R/B 4.4 01:20:13 31° NNE 01:20:13 31° NNE 01:24:06 10° NNE
NOSS 3-2 (A) 4.3 03:19:51 10° NNW 03:26:14 61° N 03:26:14 61° N
Lacrosse 5 rocket 4.0 03:41:41 21° NE 03:41:41 21° NE 03:43:13 10° NE
Resurs 1-4 Rocket 3.4 03:46:28 10° NNE 03:49:36 37° NNE 03:49:36 37° NNE
CZ-2D R/B 3.1 03:56:56 10° N 04:00:15 40° N 04:00:15 40° N
Cosmos 2082 Rocket 4.0 04:08:27 21° SE 04:10:02 24° ESE 04:14:30 10° NE
COSMOS 2455 3.4 04:07:54 10° NNW 04:12:08 48° NNW 04:12:08 48° NNW
Cosmos 1707 4.3 04:27:49 34° NE 04:27:49 34° NE 04:30:22 10° NNE
ARIANE 5 R/B 3.6 04:26:46 10° N 04:30:09 33° NNW 04:30:09 33° NNW
SL-16 R/B 3.0 04:36:44 44° WNW 04:36:44 44° WNW 04:41:21 10° NNW
Cosmos 1821 Rocket 4.3 04:30:58 10° NNW 04:35:56 49° WNW 04:35:56 49° WNW
NOSS 3-2 (C) 4.1 04:30:03 10° NW 04:47:31 - S 04:37:19 52° WSW
Cosmos 1470 3.7 04:36:02 10° N 04:39:06 45° NE 04:39:06 45° NE
USA 267 3.2 04:33:57 10° SE 04:40:30 87° NE 04:47:04 10° NW
Cosmos 1953 4.5 04:37:29 10° NNW 04:38:39 18° NNW 04:38:39 18° NNW
COSMOS 2487 3.9 04:43:51 35° NNE 04:43:51 35° NNE 04:46:04 10° NNE
Cosmos 1378 4.0 04:46:11 48° ENE 04:46:11 48° ENE 04:49:30 10° NNE
GPS 2-05 Rocket1 4.4 04:47:25 34° ENE 04:47:25 34° ENE 04:49:33 10° ENE
ADEOS Rocket 3.8 04:41:21 10° N 04:46:57 37° WNW 04:46:59 37° WNW
Cosmos 1818 4.2 04:47:39 39° NW 04:47:39 39° NW 04:52:34 10° N
CENTAUR R/B 3.4 04:40:20 10° NNW 04:48:26 69° ENE 04:56:49 10° SE
Intelsat 5-3 Rocket 4.1 04:51:19 22° SE 04:51:19 22° SE 04:52:35 10° ESE
UNKNOWN OBJECT B 4.4 04:49:29 10° N 04:51:34 26° NNW 04:51:34 26° NNW
Okean O Rocket 2.8 04:49:18 10° NNE 04:53:27 40° E 04:55:38 23° SSE
Cosmos 1339 Rocket 4.3 04:55:22 48° SSW 04:57:05 72° W 05:03:11 10° N
Cosmos 1605 Rocket 3.8 04:51:24 10° N 04:57:33 72° W 05:00:20 34° SSW
Meteor 1-24 Rocket 4.5 04:53:38 16° SSE 04:57:44 48° E 05:03:03 10° NNE
ADEOS II 3.0 04:52:43 10° NNE 04:57:47 46° E 05:01:46 16° SSE
Cosmos 1934 Rocket 4.2 04:52:53 10° NNW 04:58:50 46° W 04:59:23 44° WSW
Tiangong 1 4.0 05:04:53 10° N 05:05:45 11° NNE 05:06:38 10° NE
Cosmos 1269 Rocket 4.2 05:04:31 30° S 05:07:06 71° ESE 05:12:21 10° NNE
IUS-18 SRM-1 3.4 05:14:09 18° ESE 05:14:09 18° ESE 05:14:51 10° ESE
PSLV R/B 3.8 05:10:02 10° N 05:14:10 83° WNW 05:15:23 45° SSW
Cosmos 839 Rocket 4.4 05:08:56 10° NNW 05:15:33 85° ENE 05:23:40 10° SSE
Cosmos 1733 4.2 05:13:57 10° NNW 05:16:22 31° NW 05:16:22 31° NW
Lacrosse 5 rocket 3.7 05:17:23 13° NW 05:18:17 14° NW 05:20:46 10° N
Cosmos 1000 Rocket 4.5 05:15:16 11° S 05:21:15 83° E 05:27:28 10° N
Cosmos 389 Rocket 3.5 05:20:38 10° NNW 05:23:00 31° NW 05:23:00 31° NW
Delta 2 Rocket 4.2 05:22:47 23° NW 05:24:12 33° N 05:27:17 10° ENE
CZ-4B DEB 4.3 05:19:01 10° NNE 05:24:31 77° ESE 05:29:50 11° S
Cosmos 1697 Rocket 4.5 05:22:42 10° N 05:27:45 33° ENE 05:32:46 10° SE
MOS 1 Rocket 4.1 05:24:42 10° NNW 05:28:27 28° WNW 05:28:54 28° W
Cosmos 2100 Rocket 4.0 05:22:34 10° N 05:28:46 82° E 05:34:55 10° S
Cosmos 1842 Rocket 3.5 05:26:12 10° N 05:30:37 90° NNE 05:35:03 10° S
Cosmos-2242 3.7 05:27:48 10° NNW 05:31:43 32° W 05:32:08 31° WSW
CZ-4B R/B 3.1 05:27:45 10° N 05:32:05 65° WNW 05:34:49 23° SSW
Cosmos 2278 3.7 05:26:34 10° NNW 05:32:19 85° ENE 05:38:00 10° SSE
Cosmos 2173 Rocket 4.0 05:29:42 10° N 05:35:59 86° E 05:42:09 10° S
Meteor 2-5 Rocket 4.3 05:35:16 25° SW 05:37:47 37° WNW 05:43:06 10° N
PSLV R/B 3.5 05:34:02 10° N 05:38:23 75° WNW 05:41:55 15° SSW
Cosmos 2369 3.7 05:34:05 10° NNW 05:39:50 84° WSW 05:45:33 10° SSE
Cosmos 1674 4.1 05:45:02 10° SSE 05:48:32 39° E 05:52:05 10° NNE
Cosmos 2221 3.3 05:47:07 10° N 05:51:18 55° E 05:55:27 10° SSE
Cosmos 2061 Rocket 3.9 05:47:24 10° N 05:53:36 72° W 05:59:44 10° S
Cosmos 2082 Rocket 2.9 05:50:19 18° WSW 05:53:51 35° WNW 05:59:03 10° N
Cosmos 1833 Rocket 3.3 05:51:16 18° SW 05:54:54 37° WNW 06:00:06 10° N
Delta 2 Rocket 4.2 05:50:43 18° WSW 05:55:05 54° S 06:01:31 10° E
CZ-2C R/B 3.6 05:55:47 10° SSE 06:00:11 84° WSW 06:04:39 10° NNW
Cosmos 1980 Rocket 3.9 05:56:13 10° N 06:01:30 38° ENE 06:06:43 10° SE
Meteor 2-1 Rocket 4.2 05:57:57 10° NNW 06:03:38 73° W 06:09:23 10° S
DNEPR-1 R/B 3.8 06:00:08 10° NW 06:04:16 46° WSW 06:08:53 10° S
Cosmos 1656 3.5 05:59:21 10° NNW 06:04:45 74° WSW 06:10:09 10° SSE
Okean-O 3.0 06:00:33 10° NNE 06:04:58 69° E 06:09:22 10° S
Cosmos 2123 Rocket 4.0 05:59:41 10° S 06:06:00 77° W 06:12:18 10° N
Meteor PRIRODA 3.6 06:02:23 10° N 06:06:02 63° WNW 06:09:39 10° SSW
CZ-4B R/B 3.6 06:01:59 10° N 06:06:56 40° WNW 06:11:50 10° SW
Feng Yun 1-1 Rocket 4.4 06:01:38 10° NNE 06:07:04 74° ESE 06:12:25 10° S
Meteor 1-31 Rocket 2.7 06:07:04 10° N 06:10:58 79° WNW 06:14:53 10° SSW
Cosmos 494 Rocket 4.0 06:06:14 10° SSW 06:11:20 86° ESE 06:16:28 10° NNE
Okean 3 Rocket 4.0 06:08:03 10° SSW 06:12:12 42° W 06:16:23 10° N
Cosmos 2016 Rocket 4.0 06:07:31 10° NNW 06:13:43 64° W 06:19:56 10° S
Delta 128 4.5 06:09:48 12° WSW 06:14:18 49° SSE 06:19:54 10° E
Yuri Rocket 4.4 06:11:28 11° WSW 06:17:04 62° SSE 06:25:16 10° E
ERS-2 2.2 06:13:45 10° NNE 06:17:27 83° ESE 06:21:07 10° S
Cosmos 972 Rocket 4.3 06:12:09 10° NNW 06:18:21 69° W 06:23:49 10° S
BREEZE-M DEB 2.7 06:13:44 10° SW 06:19:48 80° SE 06:22:12 10° NE
Cosmos 1908 3.5 06:18:58 10° N 06:22:49 74° E 06:26:41 10° S
USA 267 4.5 06:19:44 10° SSW 06:23:49 17° WSW 06:27:56 10° W
GPS 2-05 Rocket1 3.9 06:20:49 10° WNW 06:24:05 36° N 06:27:17 10° ENE
Okean O Rocket 3.5 06:27:13 10° NW 06:29:24 14° WNW 06:31:36 10° W
CZ-3 R/B 2.7 06:16:53 10° WSW 06:33:20 48° S 06:38:06 10° E
